Tracking 35035 objects as of 16-Aug-2026
HD Live streaming from Space Station
objects crossing your sky now

HORIZON GORIZONT


HORIZON GORIZONT is no longer on orbit
HORIZON GORIZONT is classified as:


NORAD ID: 61757
Int'l Code: 2024-199Y
Launch date: November 4, 2024
Source: Commonwealth of Independent States (former USSR) (CIS)
Launch site: VOSTOCHNY COSMODROME (VOSTO)
Decay date: 2026-05-16

Uplink (MHz):
Downlink (MHz): 435.430
Beacon (MHz): 435.430
Mode: 9k6 GMSK CW
Call sign: RS59S
Status: Active


Uplink (MHz):
Downlink (MHz): 435.430
Beacon (MHz): 435.430
Mode: 9k6 GMSK CW
Call sign: RS59S
Status: Active

Your satellite tracking list
Your tracking list is empty




NASA's NSSDC Master Catalog

Two Line Element Set (TLE):
1 61757U 24199Y   26136.41906615  .11040808  25135-5  69102-3 0  9995
2 61757  97.2621  19.8566 0009612 240.3007 119.7337 16.41051199133166
Source of the keplerian elements: AFSPC